672  
ASUS44 KMEG 220100  
RWRTN  
TENNESSEE HOURLY STATE WEATHER ROUNDUP  
NATIONAL WEATHER SERVICE MEMPHIS TN  
700 PM CST MON JAN 21 2019  
 
TNZ002-004-019-021-049-052-054-088>092-220200-  
WEST TENNESSEE  
 
CITY SKY/WX TMP DP RH WIND PRES REMARKS
 
MEMPHIS INTL FAIR 38 23 55 SE14 30.26F WCI 30  
NWS MEMPHIS N/A 35 N/A N/A MISG N/A  
JACKSON FAIR 33 16 49 SE5 30.31F WCI 29  
DYERSBURG FAIR 33 20 58 E9 30.30F WCI 25  

 
 
TNZ008-025-027-028-033-062-065-066-220200-  
NORTH MIDDLE TENNESSEE  
 
CITY SKY/WX TMP DP RH WIND PRES REMARKS
 
NASHVILLE MOCLDY 29 9 43 E8 30.40F WCI 21  
CLARKSVILLE FAIR 25 14 63 E7 30.39F WCI 17  
SMYRNA FAIR 28 13 53 E6 30.41F WCI 22  
CROSSVILLE FAIR 23 1 38 E9 30.36F WCI 13  

 
 
TNZ061-075-076-078-094-096-097-220200-  
SOUTH MIDDLE TENNESSEE  
 
CITY SKY/WX TMP DP RH WIND PRES REMARKS
 

 
 
TNZ017-018-042-046-047-220200-  
NORTHEAST TENNESSEE  
 
CITY SKY/WX TMP DP RH WIND PRES REMARKS
 
TRI CITIES FAIR 20 6 55 CALM 30.46S  

 
 
TNZ012-013-036-069-073-074-220200-  
CENTRAL EAST TENNESSEE  
 
CITY SKY/WX TMP DP RH WIND PRES REMARKS
 
KNOXVILLE MOCLDY 24 8 50 NE8 30.45F WCI 15  
OAK RIDGE FAIR 26 9 48 E5 30.47F WCI 20  

 
 
TNZ083-085-099-220200-  
SOUTHEAST TENNESSEE  
 
CITY SKY/WX TMP DP RH WIND PRES REMARKS
 
CHATTANOOGA MOCLDY 29 5 36 NE5 30.44F WCI 24  

 
 
SKY/WX REPORTED AS FAIR MEANS FEW OR NO CLOUDS BELOW  
12 THOUSAND FEET.  
 
 
 
CLICK HERE TO GO TO PREVIOUS BULLETINS.

The Nexlab TN Page Main Text Page